CASSIOPE

Last updated on Wed Mar 11 2026 00:03:44 GMT+0000 (Coordinated Universal Time)

1 39265U 13055A 26069.47611061 .00042670 -47844-6 51117-3 0 9999 2 39265 80.9178 185.9967 0315404 33.6434 328.4382 15.18823555652652
UTC large
Height (km)
Speed (km/s)
/
Latitude / Longitude
Inclination (degrees)
Orbital Period (minutes)
Azimuth
Elevation
Range (km)
Doppler Factor

Next 0 passes for location: London (51.5072 / 0.1276)

Sorry there are no passes over London.